User: anonymous   Login
Location: Unspecified
(0.0000°N, 0.0000°E)
Time: 16:29:21
(UTC+00:00)
Language:

COSMOS 2496 - Orbit

View from above orbital plane
View from above orbital plane
View from above satellite
View from above satellite

Ground track
Ground track

The orbit data is extracted from the following two-line orbital elements,

1 39761U 14028A   21334.16895382  .00000038  00000-0  19937-3 0  9999
2 39761  82.4481  68.5298 0020630  96.7052 263.6380 12.42886165341361
Epoch (UTC): 30 November 2021 04:03:17
Eccentricity: 0.0020630
inclination: 82.4481°
perigee height: 1478 km
apogee height: 1510 km
right ascension of ascending node: 68.5298°
argument of perigee: 96.7052°
revolutions per day: 12.42886165
mean anomaly at epoch: 263.6380°
orbit number at epoch: 34136

The dashed part of the orbit path shows where the satellite is in the earth's shadow,  

DLR